Theta_e
358 359 358 358 358 356 355 354 353 352 351 352 353 356 357 355 354 351 352 357 355 358 355 350 351 351 346 340 330 332 332 332 334 328 327 328 326 325 325 323 324 323 323
357 357 357 357 357 356 353 353 353 353 353 354 355 355 356 357 359 359 357 353 356 357 356 352 351 349 346 341 332 335 333 334 333 330 327 327 327 325 325 323 324 323 323
358 356 360 359 358 358 360 359 359 360 361 361 362 363 364 363 362 362 362 360 356 359 356 353 351 351 348 341 333 329 332 333 331 329 328 326 328 325 326 326 324 325 324
357 358 356 357 359 362 362 362 363 363 363 364 364 364 363 362 362 362 361 361 357 359 357 353 355 350 348 340 335 332 333 334 331 326 325 326 326 324 326 326 326 324 323
357 358 359 358 358 358 358 358 360 362 362 361 364 364 362 362 363 361 360 359 360 359 357 356 352 350 345 336 333 335 330 334 334 329 327 327 325 326 326 326 325 323 321
355 354 354 354 352 354 352 347 351 354 355 358 352 348 356 362 359 357 358 358 358 358 356 354 349 347 339 327 324 322 325 333 334 333 329 329 328 329 325 326 325 325 323
351 342 341 341 336 337 345 351 350 348 356 355 360 356 358 363 358 357 354 351 358 357 356 353 348 336 331 320 318 318 325 328 329 332 329 329 328 329 327 326 325 324 323
351 351 351 353 352 351 351 352 352 353 355 357 361 362 362 362 360 356 352 350 356 357 355 352 347 334 329 321 327 325 325 327 326 330 328 328 327 325 327 328 326 326 325
346 347 349 352 351 352 351 351 352 354 356 358 359 360 362 361 357 351 348 353 358 357 356 351 345 332 331 331 331 330 329 325 325 326 325 326 325 324 325 326 329 329 327
345 345 347 349 350 351 351 352 353 353 353 355 359 358 360 359 355 352 351 351 355 356 351 349 346 336 333 330 331 329 328 325 322 318 317 318 317 320 324 327 327 330 329
342 344 344 345 347 346 346 349 350 352 350 356 356 357 357 357 356 355 352 348 351 349 349 347 341 339 335 330 333 331 329 325 324 326 326 325 324 323 326 326 328 330 331
336 339 341 343 342 343 342 345 345 348 350 348 351 354 354 355 354 344 346 343 343 344 344 344 342 338 335 328 332 333 329 326 328 328 327 326 326 326 326 326 325 328 329
334 335 338 340 340 342 339 342 341 344 345 347 344 348 348 352 346 341 341 341 342 342 341 344 344 339 332 328 330 330 327 328 329 329 329 327 326 327 325 325 326 327 329
335 335 335 335 333 337 338 337 339 339 338 339 343 340 340 346 341 337 339 343 342 343 342 344 340 334 326 327 327 327 324 328 329 328 329 327 326 324 325 325 326 329 329
332 330 330 330 331 332 334 335 337 336 334 335 335 334 337 338 333 333 333 339 341 340 342 342 333 329 323 326 326 324 326 328 330 329 329 327 325 326 326 325 325 326 329
332 328 328 328 328 330 331 332 332 332 333 335 335 332 332 331 332 334 334 335 339 339 338 332 328 325 324 326 326 325 324 328 332 330 328 326 326 327 325 325 325 326 328
329 326 327 325 325 327 329 329 330 330 331 333 333 333 332 330 330 332 332 333 335 336 336 333 329 326 325 327 327 327 325 327 332 331 327 326 327 327 325 326 325 325 326
326 324 324 323 324 325 325 326 329 328 327 328 329 330 330 331 330 331 333 331 334 334 336 335 332 329 327 328 328 329 331 330 333 331 327 327 327 326 325 326 326 326 326
323 323 322 322 322 322 324 325 326 325 324 323 325 325 323 325 329 332 333 332 333 333 333 336 335 330 329 328 329 333 335 334 334 332 331 327 326 327 325 327 326 326 326
322 321 320 320 322 322 322 323 322 319 319 320 321 321 319 320 322 325 331 330 332 334 333 334 335 336 334 331 331 334 336 336 334 331 331 327 325 327 326 327 326 324 325
320 319 319 320 320 319 319 317 317 316 317 317 318 317 316 314 317 318 321 322 324 327 330 333 335 335 336 336 335 334 335 334 333 332 331 328 326 327 325 326 326 324 324
317 317 317 317 316 314 313 313 313 314 314 314 314 313 312 312 311 312 314 315 316 318 322 326 328 332 335 334 333 332 331 333 332 332 330 327 326 325 325 325 325 324 323
315 315 314 313 311 309 309 309 309 309 309 309 310 309 308 307 307 307 308 309 311 312 315 319 322 325 330 331 330 329 329 329 331 330 329 327 326 325 326 324 324 323 324
313 312 310 309 306 306 305 305 305 305 305 305 305 305 305 304 304 304 304 306 307 308 310 312 316 319 324 328 328 327 326 326 327 328 328 327 325 326 325 323 323 324 324
312 309 308 306 305 305 304 303 302 302 302 302 302 301 301 301 301 301 302 303 304 306 307 307 310 313 318 322 325 326 326 326 325 325 325 325 324 325 325 323 323 324 324
311 309 307 306 305 304 303 302 301 301 300 300 300 300 300 300 300 301 302 302 303 303 304 304 306 307 310 317 320 323 326 326 325 324 324 323 323 323 324 324 324 324 323
Wind_Speed
23 22 20 19 18 16 14 13 14 14 13 13 12 13 13 14 14 15 16 15 16 12 9 4 11 4 4 5 5 7 8 10 9 5 5 6 4 4 6 3 4 6 2
27 22 23 19 17 16 15 13 13 14 13 14 14 16 17 18 17 17 18 18 16 12 10 10 9 5 6 5 5 3 1 2 12 11 10 6 5 6 6 6 6 5 4
25 23 16 18 15 12 9 10 11 13 14 16 17 19 19 19 19 19 18 18 16 12 11 12 9 6 5 5 3 4 4 7 11 14 10 6 4 6 6 6 7 10 5
12 18 14 9 9 9 10 11 13 15 16 18 20 20 20 19 21 20 18 18 16 12 10 9 8 8 8 4 4 1 3 4 12 15 13 9 8 8 7 7 10 10 4
10 10 11 8 5 4 4 7 13 15 16 15 13 12 14 15 18 17 18 19 15 10 8 9 8 9 11 8 4 5 2 4 9 14 12 9 9 11 9 8 13 6 6
11 11 10 6 6 8 5 6 16 15 17 22 23 21 17 15 17 15 14 17 15 12 13 14 10 9 11 9 7 4 3 4 6 8 14 11 7 4 9 14 13 5 2
3 3 5 9 10 13 14 12 17 18 18 21 22 18 17 16 15 15 13 15 15 16 16 15 11 8 9 10 8 5 7 9 6 6 13 9 10 7 5 8 6 8 6
5 3 4 5 5 8 10 12 14 18 20 21 20 16 10 13 15 12 11 14 15 19 20 19 14 17 14 14 14 12 12 9 7 6 11 11 9 6 4 1 7 7 5
5 3 3 5 6 9 12 13 14 17 20 20 19 16 7 8 7 6 7 4 10 11 13 16 17 21 16 15 15 15 11 10 9 5 6 8 5 5 4 3 11 14 5
5 3 5 5 5 6 10 11 12 12 15 18 19 12 8 6 13 11 9 4 8 11 11 16 16 19 16 18 15 14 15 14 9 6 7 7 5 6 3 7 10 11 5
3 3 2 3 4 7 10 11 12 13 18 17 12 14 11 9 11 12 6 4 3 7 9 14 18 16 16 19 15 14 14 16 11 9 8 8 7 4 4 4 10 11 10
2 2 2 3 3 6 12 13 15 15 15 18 19 16 12 6 7 4 4 5 6 7 7 8 18 17 16 19 16 13 14 13 12 11 11 10 8 8 7 4 6 10 11
3 3 3 3 5 7 11 15 17 19 19 17 19 16 23 12 4 6 3 2 6 10 8 13 19 19 21 22 14 16 11 14 12 10 9 12 9 8 3 5 8 11 10
4 5 5 4 7 7 8 12 14 16 17 18 16 16 15 10 11 14 13 9 9 6 10 11 13 22 24 23 18 15 14 12 10 10 11 14 9 7 9 7 4 9 12
3 4 5 4 5 9 11 9 7 11 16 14 12 12 13 12 15 19 18 10 6 6 13 16 21 25 24 21 19 18 17 13 10 5 14 13 10 9 10 9 8 10 12
8 5 3 7 6 6 7 9 12 15 16 14 15 12 12 11 18 18 18 8 5 9 15 21 23 22 22 20 19 18 18 16 12 12 13 13 13 12 12 9 9 8 14
6 4 7 11 11 11 10 11 9 14 15 17 16 15 15 17 17 21 19 8 5 13 12 16 19 20 22 22 20 19 20 18 15 14 15 14 13 12 14 11 10 8 13
4 3 11 12 13 13 13 13 7 11 14 16 17 17 15 15 17 17 16 7 5 15 13 15 16 20 21 21 21 21 20 19 18 17 16 16 14 13 13 13 13 10 14
6 9 8 9 12 13 12 12 13 11 14 16 16 15 18 20 16 13 9 6 6 11 20 11 17 19 21 22 22 20 22 23 22 22 16 16 15 13 15 14 15 13 14
7 4 7 9 9 14 15 14 15 15 15 16 16 16 22 24 21 19 8 10 9 9 12 18 15 18 17 21 24 21 10 24 25 25 21 17 20 11 15 14 16 14 12
7 10 12 13 13 13 11 13 14 14 14 14 15 16 19 19 15 16 15 12 10 7 3 2 6 11 16 21 21 19 17 18 26 26 24 23 21 11 10 12 12 17 15
12 12 13 13 14 14 13 11 11 13 13 14 16 17 18 15 16 16 15 13 13 11 8 8 6 2 8 8 11 18 20 23 24 28 29 28 24 17 11 10 12 16 16
11 12 13 12 13 15 14 15 14 15 15 15 16 17 17 17 18 17 16 16 15 14 11 8 8 7 5 8 8 11 15 23 27 29 31 30 26 24 17 15 15 17 14
12 14 12 12 14 13 14 14 16 15 15 14 14 13 13 14 16 16 16 16 16 14 13 12 9 9 9 10 10 10 11 13 18 24 27 29 31 24 21 19 18 15 10
13 13 14 14 11 11 13 15 16 15 14 12 12 12 11 11 12 12 13 13 14 13 12 12 10 9 10 11 14 14 14 13 14 17 21 26 30 27 25 22 19 16 13
12 12 12 13 14 13 13 14 15 15 13 12 11 10 9 9 9 10 11 12 15 15 16 15 13 10 8 9 14 16 14 16 18 17 20 26 27 30 27 22 22 19 18
Wind_Direction
194 197 204 205 217 227 240 251 256 263 270 275 276 274 273 269 266 268 271 272 276 273 273 303 293 275 270 306 316 346 357 21 113 114 131 159 155 159 173 174 211 180 245
190 197 197 202 212 216 226 240 254 257 263 266 265 265 263 264 265 263 262 264 275 272 266 267 279 253 216 304 321 309 321 68 124 136 137 160 169 177 175 173 165 185 215
182 192 190 191 198 212 226 234 251 262 263 263 264 264 263 264 263 266 268 263 269 272 270 257 262 210 191 237 325 342 53 87 124 133 144 163 159 173 213 208 173 163 166
144 173 183 196 211 218 232 249 252 255 259 261 265 269 274 277 274 272 268 261 260 256 264 254 224 191 182 205 217 294 141 165 141 138 143 153 169 201 228 198 160 175 136
115 121 118 146 122 88 54 328 302 287 284 283 295 298 290 283 277 275 268 262 255 242 235 205 202 196 189 177 191 206 121 312 179 152 141 155 183 212 219 161 152 180 280
79 100 112 128 145 152 192 179 260 283 310 309 298 302 294 292 291 295 252 251 247 236 198 209 210 206 196 197 185 193 128 114 31 66 162 142 132 76 135 136 151 176 256
72 342 306 279 294 282 282 295 294 298 305 288 286 295 280 287 283 297 265 259 246 222 208 206 190 192 198 183 156 160 119 105 96 78 102 118 119 102 117 144 185 181 180
79 33 2 345 322 310 321 312 301 310 300 291 286 285 290 299 304 298 270 283 250 219 211 203 188 185 185 159 131 124 121 114 121 126 133 118 129 137 110 241 236 216 170
84 48 15 15 14 349 334 323 315 307 303 294 289 281 285 289 317 314 294 295 250 224 196 186 191 179 184 154 155 148 134 113 116 102 118 133 139 166 175 350 322 236 206
88 70 38 20 8 338 339 340 334 323 320 311 296 278 275 283 299 295 302 273 258 201 171 185 191 188 184 169 167 165 139 135 130 114 120 125 143 161 90 34 11 11 76
75 81 68 26 350 354 346 341 332 325 341 355 322 314 296 282 276 288 276 244 279 251 234 181 185 196 187 175 168 170 157 147 141 132 139 124 108 130 127 46 50 48 63
38 48 32 13 19 357 353 346 345 352 3 12 10 344 311 283 275 348 203 217 235 248 227 205 203 202 194 178 171 181 162 138 148 174 172 161 173 166 122 61 79 75 50
30 17 359 9 19 36 9 355 354 359 4 4 13 4 4 344 50 46 22 332 243 229 259 235 219 206 187 182 177 177 168 157 191 190 180 150 143 140 111 104 112 101 76
33 16 360 356 1 25 21 11 2 7 359 350 352 0 2 15 28 6 354 338 327 237 200 189 187 180 184 184 176 176 173 176 208 206 158 141 146 148 155 166 151 152 102
17 349 2 37 21 359 26 1 9 1 355 344 336 346 344 351 337 341 338 323 312 217 195 185 174 176 177 185 189 185 180 208 232 193 150 142 155 180 177 186 179 167 133
319 31 10 335 22 28 360 8 9 2 354 356 344 333 335 336 333 336 335 287 278 225 197 177 174 180 185 188 191 194 198 203 212 204 171 166 179 193 164 194 186 195 151
330 5 348 5 3 356 20 359 353 351 352 355 352 345 330 330 335 341 342 302 230 203 202 188 185 189 193 189 193 193 208 208 204 207 176 184 187 188 168 181 196 205 164
322 101 29 0 348 354 358 326 20 354 341 341 345 341 331 315 327 332 341 311 241 215 224 209 207 199 198 198 199 201 208 209 209 200 178 189 190 175 182 184 195 204 164
37 43 13 358 345 333 329 355 5 18 345 336 339 342 335 338 328 323 334 310 301 254 231 236 226 218 211 205 207 212 217 205 198 189 191 182 190 200 197 196 192 196 169
42 59 9 353 356 356 353 3 10 0 340 337 337 338 337 344 346 341 338 317 339 261 266 241 242 235 221 219 216 220 230 196 193 187 192 172 199 219 204 208 193 182 181
21 16 9 3 6 3 11 348 336 334 332 333 334 337 333 336 331 326 326 334 322 308 279 264 252 246 237 231 232 228 219 199 189 193 188 188 193 221 203 189 182 177 199
32 18 18 12 8 3 351 342 346 339 339 336 332 335 335 341 334 327 321 319 314 306 287 273 273 202 197 222 231 229 223 215 203 199 196 191 192 206 187 188 174 179 196
39 31 27 17 14 1 356 355 350 347 340 336 337 339 343 341 337 332 325 313 312 313 300 277 256 246 193 187 203 215 208 217 215 208 198 193 192 191 201 205 196 197 212
51 43 32 29 18 8 2 355 353 352 350 344 341 342 346 342 340 333 328 324 320 312 312 301 275 252 233 204 190 179 203 211 216 212 211 205 197 200 195 195 200 201 215
56 52 42 31 18 8 3 4 4 359 353 349 347 348 349 348 346 348 344 343 338 333 328 318 301 279 247 225 210 198 199 197 193 206 211 209 199 200 200 202 202 199 197
62 62 50 36 26 15 8 6 5 359 354 357 357 357 358 1 4 10 10 8 0 349 335 317 295 283 271 246 232 219 204 202 201 202 202 202 200 203 206 201 203 202 205